Tracking 31027 objects as of 19-Jul-2025
HD Live streaming from Space Station
objects crossing your sky now

STARLINK-4274

Track STARLINK-4274 now!
10-day predictions
STARLINK-4274 is classified as:


NORAD ID: 52865
Int'l Code: 2022-062AM
Perigee: 546.0 km
Apogee: 547.8 km
Inclination: 53.2 °
Period: 95.4 minutes
Semi major axis: 6917 km
RCS: Unknown
Launch date: June 17, 2022
Source: United States (US)
Launch site: AIR FORCE EASTERN TEST RANGE (AFETR)
Your satellite tracking list
STARLINK-5403
Track 1 satellite(s)




NASA's NSSDC Master Catalog

Two Line Element Set (TLE):
1 52865U 22062AM  25199.43045438  .00000185  00000-0  29702-4 0  9993
2 52865  53.2180 355.7516 0001335  86.8150 273.2995 15.08838911170569
Source of the keplerian elements: AFSPC